Time,TemperatureF,DewpointF,PressureIn,WindDirection,WindDirectionDegrees,WindSpeedMPH,WindSpeedGustMPH,Humidity,HourlyPrecipIn,Conditions,Clouds,dailyrainin,SoftwareType,DateUTC
2013-09-16 00:13:00,57.0,53.0,30.06,SE,135,0.0,0.0,88,0.00,,,0.00,TxWx,2013-09-16 04:13:00,
2013-09-16 00:18:00,57.0,53.0,30.06,SE,135,0.0,0.0,88,0.00,,,0.00,TxWx,2013-09-16 04:18:00,
2013-09-16 00:24:00,57.0,53.0,30.06,ESE,112,0.0,0.0,88,0.00,,,0.00,TxWx,2013-09-16 04:24:00,
2013-09-16 00:29:00,57.0,53.0,30.05,ENE,67,0.0,0.0,88,0.00,,,0.00,TxWx,2013-09-16 04:29:00,
2013-09-16 00:34:00,57.0,53.0,30.05,SSE,157,0.0,0.0,88,0.00,,,0.00,TxWx,2013-09-16 04:34:00,
2013-09-16 00:39:00,57.0,53.0,30.05,SE,135,0.0,0.0,88,0.00,,,0.00,TxWx,2013-09-16 04:39:00,
2013-09-16 00:44:00,57.0,53.0,30.04,SSE,157,0.0,0.0,88,0.00,,,0.00,TxWx,2013-09-16 04:44:00,
2013-09-16 00:49:00,57.0,53.0,30.05,SSE,157,0.0,0.0,88,0.00,,,0.00,TxWx,2013-09-16 04:49:00,
2013-09-16 00:54:00,57.0,53.0,30.05,ESE,112,0.0,0.0,88,0.00,,,0.00,TxWx,2013-09-16 04:54:00,
2013-09-16 00:59:00,57.0,53.0,30.04,ESE,112,0.0,0.0,88,0.00,,,0.00,TxWx,2013-09-16 04:59:00,
2013-09-16 01:04:00,57.0,53.0,30.05,SSE,157,0.0,0.0,88,0.00,,,0.00,TxWx,2013-09-16 05:04:00,
2013-09-16 01:09:00,57.0,53.0,30.05,SE,135,0.0,0.0,88,0.00,,,0.00,TxWx,2013-09-16 05:09:00,
2013-09-16 01:14:00,57.0,53.0,30.05,South,180,0.0,0.0,88,0.00,,,0.00,TxWx,2013-09-16 05:14:00,
2013-09-16 01:19:00,57.0,53.0,30.05,SW,225,0.0,2.0,88,0.00,,,0.00,TxWx,2013-09-16 05:19:00,
2013-09-16 01:25:00,57.0,53.0,30.05,East,90,0.0,0.0,88,0.00,,,0.00,TxWx,2013-09-16 05:25:00,
2013-09-16 01:30:00,56.0,52.0,30.05,ESE,112,0.0,0.0,88,0.00,,,0.00,TxWx,2013-09-16 05:30:00,
2013-09-16 01:35:00,56.0,52.0,30.05,SE,135,0.0,0.0,88,0.00,,,0.00,TxWx,2013-09-16 05:35:00,
2013-09-16 01:40:00,56.0,53.0,30.05,ESE,112,0.0,0.0,89,0.00,,,0.00,TxWx,2013-09-16 05:40:00,
2013-09-16 01:45:00,56.0,53.0,30.05,SE,135,0.0,0.0,89,0.00,,,0.00,TxWx,2013-09-16 05:45:00,
2013-09-16 01:50:00,56.0,53.0,30.05,SE,135,0.0,0.0,89,0.00,,,0.00,TxWx,2013-09-16 05:50:00,
2013-09-16 01:55:00,56.0,53.0,30.05,SE,135,0.0,0.0,89,0.00,,,0.00,TxWx,2013-09-16 05:55:00,
2013-09-16 02:00:00,56.0,53.0,30.05,East,90,0.0,0.0,89,0.00,,,0.00,TxWx,2013-09-16 06:00:00,
2013-09-16 02:05:00,56.0,53.0,30.04,SE,135,0.0,0.0,89,0.00,,,0.00,TxWx,2013-09-16 06:05:00,
2013-09-16 02:10:00,56.0,53.0,30.04,SE,135,0.0,0.0,89,0.00,,,0.00,TxWx,2013-09-16 06:10:00,
2013-09-16 02:15:00,56.0,53.0,30.04,SE,135,0.0,0.0,89,0.00,,,0.00,TxWx,2013-09-16 06:15:00,
2013-09-16 02:20:00,56.0,53.0,30.04,SE,135,0.0,0.0,89,0.00,,,0.00,TxWx,2013-09-16 06:20:00,
2013-09-16 02:25:00,56.0,53.0,30.04,ESE,112,0.0,0.0,89,0.00,,,0.00,TxWx,2013-09-16 06:25:00,
2013-09-16 02:30:00,56.0,53.0,30.05,SSE,157,0.0,0.0,89,0.00,,,0.00,TxWx,2013-09-16 06:30:00,
2013-09-16 02:35:00,56.0,53.0,30.05,SSW,202,1.0,1.0,89,0.00,,,0.00,TxWx,2013-09-16 06:35:00,
2013-09-16 02:40:00,56.0,53.0,30.05,ESE,112,0.0,0.0,89,0.00,,,0.00,TxWx,2013-09-16 06:40:00,
2013-09-16 02:45:00,56.0,53.0,30.05,East,90,0.0,0.0,89,0.00,,,0.00,TxWx,2013-09-16 06:45:00,
2013-09-16 02:50:00,56.0,53.0,30.05,East,90,0.0,0.0,89,0.00,,,0.00,TxWx,2013-09-16 06:50:00,
2013-09-16 02:55:00,56.0,53.0,30.04,SE,135,0.0,0.0,89,0.00,,,0.00,TxWx,2013-09-16 06:55:00,
2013-09-16 03:00:00,56.0,53.0,30.04,South,180,0.0,0.0,90,0.00,,,0.00,TxWx,2013-09-16 07:00:00,
2013-09-16 03:05:00,56.0,53.0,30.05,ESE,112,0.0,0.0,90,0.00,,,0.00,TxWx,2013-09-16 07:05:00,
2013-09-16 03:10:00,56.0,53.0,30.05,SSE,157,0.0,0.0,90,0.00,,,0.00,TxWx,2013-09-16 07:10:00,
2013-09-16 03:15:00,56.0,53.0,30.05,SE,135,0.0,0.0,90,0.00,,,0.00,TxWx,2013-09-16 07:15:00,
2013-09-16 03:20:00,56.0,53.0,30.05,ESE,112,0.0,0.0,90,0.00,,,0.00,TxWx,2013-09-16 07:20:00,
2013-09-16 03:25:00,56.0,53.0,30.05,SSE,157,0.0,0.0,90,0.00,,,0.00,TxWx,2013-09-16 07:25:00,
2013-09-16 03:30:00,56.0,53.0,30.05,SE,135,0.0,0.0,90,0.00,,,0.00,TxWx,2013-09-16 07:30:00,
2013-09-16 03:35:00,56.0,53.0,30.05,East,90,0.0,0.0,90,0.60,,,0.01,TxWx,2013-09-16 07:35:00,
2013-09-16 03:41:00,56.0,53.0,30.05,ESE,112,0.0,0.0,90,0.60,,,0.01,TxWx,2013-09-16 07:41:00,
2013-09-16 03:46:00,56.0,53.0,30.05,SE,135,0.0,0.0,90,0.00,,,0.01,TxWx,2013-09-16 07:46:00,
2013-09-16 03:51:00,55.0,52.0,30.05,SE,135,0.0,0.0,90,0.00,,,0.01,TxWx,2013-09-16 07:51:00,
2013-09-16 03:56:00,55.0,52.0,30.05,East,90,0.0,0.0,90,0.00,,,0.02,TxWx,2013-09-16 07:56:00,
2013-09-16 04:01:00,55.0,52.0,30.05,ESE,112,0.0,0.0,90,0.00,,,0.02,TxWx,2013-09-16 08:01:00,
2013-09-16 04:06:00,55.0,52.0,30.05,ESE,112,0.0,0.0,90,0.60,,,0.02,TxWx,2013-09-16 08:06:00,
2013-09-16 04:11:00,55.0,52.0,30.06,ESE,112,0.0,0.0,90,0.60,,,0.02,TxWx,2013-09-16 08:11:00,
2013-09-16 04:16:00,55.0,52.0,30.05,ESE,112,0.0,0.0,90,0.00,,,0.02,TxWx,2013-09-16 08:16:00,
2013-09-16 04:21:00,55.0,52.0,30.06,ESE,112,0.0,0.0,90,0.00,,,0.02,TxWx,2013-09-16 08:21:00,
2013-09-16 04:26:00,55.0,52.0,30.06,ESE,112,0.0,0.0,90,0.00,,,0.02,TxWx,2013-09-16 08:26:00,
2013-09-16 04:31:00,55.0,52.0,30.06,ESE,112,0.0,0.0,90,0.00,,,0.02,TxWx,2013-09-16 08:31:00,
2013-09-16 04:36:00,55.0,52.0,30.06,ESE,112,0.0,0.0,90,0.00,,,0.02,TxWx,2013-09-16 08:36:00,
2013-09-16 04:41:00,55.0,52.0,30.07,SE,135,0.0,0.0,90,0.00,,,0.02,TxWx,2013-09-16 08:41:00,
2013-09-16 04:46:00,55.0,52.0,30.07,SE,135,0.0,0.0,90,0.00,,,0.02,TxWx,2013-09-16 08:46:00,
2013-09-16 04:51:00,55.0,52.0,30.07,SE,135,0.0,0.0,90,0.00,,,0.02,TxWx,2013-09-16 08:51:00,
2013-09-16 04:56:00,55.0,52.0,30.07,SE,135,0.0,1.0,90,0.00,,,0.02,TxWx,2013-09-16 08:56:00,
2013-09-16 05:01:00,55.0,52.0,30.07,East,90,0.0,0.0,90,0.00,,,0.02,TxWx,2013-09-16 09:01:00,
2013-09-16 05:06:00,55.0,52.0,30.07,SE,135,0.0,0.0,91,0.00,,,0.02,TxWx,2013-09-16 09:06:00,
2013-09-16 05:11:00,55.0,52.0,30.06,ESE,112,0.0,0.0,91,0.00,,,0.02,TxWx,2013-09-16 09:11:00,
2013-09-16 05:16:00,55.0,52.0,30.06,SE,135,0.0,0.0,91,0.60,,,0.03,TxWx,2013-09-16 09:16:00,
2013-09-16 05:21:00,55.0,52.0,30.06,ESE,112,0.0,0.0,91,0.60,,,0.03,TxWx,2013-09-16 09:21:00,
2013-09-16 05:26:00,55.0,52.0,30.06,SE,135,0.0,0.0,91,0.00,,,0.03,TxWx,2013-09-16 09:26:00,
2013-09-16 05:31:00,55.0,52.0,30.06,SE,135,0.0,0.0,91,0.00,,,0.03,TxWx,2013-09-16 09:31:00,
2013-09-16 05:36:00,55.0,52.0,30.06,ENE,67,0.0,0.0,91,0.00,,,0.03,TxWx,2013-09-16 09:36:00,
2013-09-16 05:41:00,55.0,52.0,30.06,SSE,157,0.0,0.0,91,0.00,,,0.03,TxWx,2013-09-16 09:41:00,
2013-09-16 05:46:00,55.0,52.0,30.06,ENE,67,0.0,0.0,91,0.00,,,0.03,TxWx,2013-09-16 09:46:00,
2013-09-16 05:51:00,55.0,52.0,30.06,SE,135,0.0,0.0,91,0.00,,,0.03,TxWx,2013-09-16 09:51:00,
2013-09-16 05:56:00,55.0,52.0,30.06,SW,225,0.0,0.0,91,0.00,,,0.03,TxWx,2013-09-16 09:56:00,
2013-09-16 06:01:00,55.0,52.0,30.07,SSE,157,0.0,0.0,91,0.00,,,0.03,TxWx,2013-09-16 10:01:00,
2013-09-16 06:06:00,55.0,52.0,30.07,South,180,0.0,0.0,91,0.00,,,0.03,TxWx,2013-09-16 10:06:00,
2013-09-16 06:11:00,55.0,52.0,30.06,SE,135,0.0,0.0,91,0.00,,,0.03,TxWx,2013-09-16 10:11:00,
2013-09-16 06:16:00,55.0,52.0,30.06,SSW,202,1.0,1.0,91,0.00,,,0.03,TxWx,2013-09-16 10:16:00,
2013-09-16 06:21:00,55.0,52.0,30.06,NE,45,0.0,1.0,91,0.00,,,0.03,TxWx,2013-09-16 10:21:00,
2013-09-16 06:26:00,55.0,53.0,30.06,SSE,157,1.0,3.0,92,0.00,,,0.03,TxWx,2013-09-16 10:26:00,
2013-09-16 06:31:00,55.0,53.0,30.07,SSW,202,0.0,0.0,92,0.00,,,0.03,TxWx,2013-09-16 10:31:00,
2013-09-16 06:36:00,55.0,53.0,30.07,SW,225,0.0,0.0,92,0.00,,,0.03,TxWx,2013-09-16 10:36:00,
2013-09-16 06:41:00,55.0,53.0,30.07,SSE,157,0.0,0.0,92,0.00,,,0.03,TxWx,2013-09-16 10:41:00,
2013-09-16 06:46:00,55.0,53.0,30.07,ESE,112,0.0,0.0,92,0.00,,,0.03,TxWx,2013-09-16 10:46:00,
2013-09-16 06:51:00,55.0,53.0,30.07,SE,135,0.0,1.0,92,0.00,,,0.03,TxWx,2013-09-16 10:51:00,
2013-09-16 06:56:00,55.0,53.0,30.07,SSE,157,0.0,0.0,92,0.00,,,0.03,TxWx,2013-09-16 10:56:00,
2013-09-16 07:01:00,54.0,53.0,30.08,SW,225,1.0,1.0,92,0.00,,,0.03,TxWx,2013-09-16 11:01:00,
2013-09-16 07:06:00,54.0,52.0,30.08,NNE,22,0.0,0.0,92,0.00,,,0.03,TxWx,2013-09-16 11:06:00,
2013-09-16 07:11:00,54.0,52.0,30.08,South,180,0.0,0.0,92,0.00,,,0.03,TxWx,2013-09-16 11:11:00,
2013-09-16 07:16:00,55.0,53.0,30.08,ESE,112,0.0,0.0,92,0.00,,,0.03,TxWx,2013-09-16 11:16:00,
2013-09-16 07:21:00,55.0,53.0,30.08,NNE,22,2.0,3.0,92,0.00,,,0.03,TxWx,2013-09-16 11:21:00,
2013-09-16 07:26:00,55.0,53.0,30.08,East,90,0.0,0.0,92,0.00,,,0.03,TxWx,2013-09-16 11:26:00,
2013-09-16 07:31:00,55.0,53.0,30.08,NNW,337,0.0,0.0,92,0.00,,,0.03,TxWx,2013-09-16 11:31:00,
2013-09-16 07:36:00,55.0,53.0,30.09,ESE,112,0.0,0.0,92,0.00,,,0.03,TxWx,2013-09-16 11:36:00,
2013-09-16 07:41:00,55.0,53.0,30.09,East,90,0.0,0.0,92,0.00,,,0.03,TxWx,2013-09-16 11:41:00,
2013-09-16 07:46:00,55.0,53.0,30.09,ESE,112,0.0,0.0,93,0.00,,,0.03,TxWx,2013-09-16 11:46:00,
2013-09-16 07:51:00,55.0,53.0,30.08,SE,135,0.0,0.0,93,0.00,,,0.03,TxWx,2013-09-16 11:51:00,
2013-09-16 07:56:00,55.0,53.0,30.09,SSE,157,0.0,0.0,93,0.00,,,0.03,TxWx,2013-09-16 11:56:00,
2013-09-16 08:01:00,55.0,53.0,30.08,SSE,157,0.0,1.0,92,0.00,,,0.03,TxWx,2013-09-16 12:01:00,
2013-09-16 08:06:00,55.0,53.0,30.09,SE,135,0.0,0.0,93,0.00,,,0.03,TxWx,2013-09-16 12:06:00,
2013-09-16 08:11:00,55.0,53.0,30.09,SE,135,0.0,0.0,93,0.00,,,0.03,TxWx,2013-09-16 12:11:00,
2013-09-16 08:16:00,55.0,53.0,30.09,SSE,157,1.0,1.0,93,0.00,,,0.03,TxWx,2013-09-16 12:16:00,
2013-09-16 08:21:00,55.0,53.0,30.09,ESE,112,0.0,0.0,93,0.00,,,0.03,TxWx,2013-09-16 12:21:00,
2013-09-16 08:26:00,55.0,53.0,30.09,SE,135,0.0,0.0,93,0.00,,,0.03,TxWx,2013-09-16 12:26:00,
2013-09-16 08:31:00,55.0,53.0,30.09,SW,225,1.0,1.0,93,0.00,,,0.03,TxWx,2013-09-16 12:31:00,
2013-09-16 08:36:00,55.0,54.0,30.09,SE,135,0.0,0.0,93,0.00,,,0.03,TxWx,2013-09-16 12:36:00,
2013-09-16 08:41:00,56.0,54.0,30.09,South,180,0.0,1.0,93,0.00,,,0.03,TxWx,2013-09-16 12:41:00,
2013-09-16 08:46:00,56.0,54.0,30.09,SW,225,0.0,1.0,93,0.00,,,0.03,TxWx,2013-09-16 12:46:00,
2013-09-16 08:51:00,57.0,55.0,30.09,SSW,202,2.0,2.0,93,0.00,,,0.03,TxWx,2013-09-16 12:51:00,
2013-09-16 08:56:00,57.0,55.0,30.08,SSE,157,0.0,1.0,93,0.00,,,0.03,TxWx,2013-09-16 12:56:00,
2013-09-16 09:01:00,57.0,55.0,30.09,ESE,112,0.0,0.0,93,0.00,,,0.03,TxWx,2013-09-16 13:01:00,
2013-09-16 09:06:00,58.0,56.0,30.09,South,180,1.0,1.0,93,0.00,,,0.03,TxWx,2013-09-16 13:06:00,
2013-09-16 09:11:00,59.0,57.0,30.09,South,180,3.0,3.0,93,0.00,,,0.03,TxWx,2013-09-16 13:11:00,
2013-09-16 09:16:00,59.0,57.0,30.09,SE,135,0.0,0.0,92,0.00,,,0.03,TxWx,2013-09-16 13:16:00,
2013-09-16 09:21:00,60.0,58.0,30.09,WNW,292,0.0,1.0,92,0.00,,,0.03,TxWx,2013-09-16 13:21:00,
2013-09-16 09:26:00,60.0,58.0,30.10,SSE,157,0.0,1.0,92,0.00,,,0.03,TxWx,2013-09-16 13:26:00,
2013-09-16 09:31:00,60.0,57.0,30.10,NNE,22,0.0,1.0,91,0.00,,,0.03,TxWx,2013-09-16 13:31:00,
2013-09-16 09:36:00,61.0,58.0,30.10,SE,135,0.0,0.0,91,0.00,,,0.03,TxWx,2013-09-16 13:36:00,
2013-09-16 09:41:00,61.0,58.0,30.10,East,90,0.0,1.0,89,0.00,,,0.03,TxWx,2013-09-16 13:41:00,
2013-09-16 09:46:00,62.0,58.0,30.10,ENE,67,0.0,0.0,88,0.00,,,0.03,TxWx,2013-09-16 13:46:00,
2013-09-16 09:51:00,63.0,59.0,30.10,ENE,67,0.0,1.0,87,0.00,,,0.03,TxWx,2013-09-16 13:51:00,
2013-09-16 09:56:00,63.0,58.0,30.10,NE,45,2.0,2.0,84,0.00,,,0.03,TxWx,2013-09-16 13:56:00,
2013-09-16 10:01:00,63.0,58.0,30.10,SE,135,0.0,0.0,83,0.00,,,0.03,TxWx,2013-09-16 14:01:00,
2013-09-16 10:06:00,63.0,57.0,30.10,SE,135,1.0,1.0,80,0.00,,,0.03,TxWx,2013-09-16 14:06:00,
2013-09-16 10:11:00,62.0,56.0,30.10,North,0,1.0,2.0,80,0.00,,,0.03,TxWx,2013-09-16 14:11:00,
2013-09-16 10:16:00,62.0,56.0,30.10,ENE,67,0.0,0.0,80,0.00,,,0.03,TxWx,2013-09-16 14:16:00,
2013-09-16 10:21:00,62.0,55.0,30.10,ENE,67,0.0,0.0,79,0.00,,,0.03,TxWx,2013-09-16 14:21:00,
2013-09-16 10:26:00,63.0,56.0,30.10,ESE,112,0.0,0.0,79,0.00,,,0.03,TxWx,2013-09-16 14:26:00,
2013-09-16 10:31:00,63.0,56.0,30.10,South,180,1.0,1.0,78,0.00,,,0.03,TxWx,2013-09-16 14:31:00,
2013-09-16 10:36:00,63.0,56.0,30.10,North,0,1.0,2.0,78,0.00,,,0.03,TxWx,2013-09-16 14:36:00,
2013-09-16 10:41:00,63.0,55.0,30.10,ENE,67,0.0,0.0,76,0.00,,,0.03,TxWx,2013-09-16 14:41:00,
2013-09-16 10:46:00,63.0,55.0,30.10,ENE,67,0.0,1.0,75,0.00,,,0.03,TxWx,2013-09-16 14:46:00,
2013-09-16 10:51:00,63.0,54.0,30.11,NNW,337,1.0,2.0,74,0.00,,,0.03,TxWx,2013-09-16 14:51:00,
2013-09-16 10:56:00,62.0,53.0,30.11,NNE,22,5.0,5.0,73,0.00,,,0.03,TxWx,2013-09-16 14:56:00,
2013-09-16 11:01:00,62.0,53.0,30.11,SE,135,0.0,0.0,73,0.00,,,0.03,TxWx,2013-09-16 15:01:00,
2013-09-16 11:06:00,62.0,53.0,30.11,SE,135,0.0,0.0,73,0.00,,,0.03,TxWx,2013-09-16 15:06:00,
2013-09-16 11:11:00,62.0,53.0,30.11,NNW,337,0.0,1.0,73,0.00,,,0.03,TxWx,2013-09-16 15:11:00,
2013-09-16 11:16:00,62.0,53.0,30.11,SSE,157,0.0,0.0,73,0.00,,,0.03,TxWx,2013-09-16 15:16:00,
2013-09-16 11:21:00,62.0,53.0,30.12,SSE,157,0.0,0.0,73,0.00,,,0.03,TxWx,2013-09-16 15:21:00,
2013-09-16 11:26:00,61.0,52.0,30.12,NNW,337,1.0,1.0,74,0.00,,,0.03,TxWx,2013-09-16 15:26:00,
2013-09-16 11:31:00,61.0,53.0,30.12,SSW,202,0.0,0.0,74,0.00,,,0.03,TxWx,2013-09-16 15:31:00,
2013-09-16 11:36:00,61.0,53.0,30.12,ESE,112,0.0,0.0,75,0.00,,,0.03,TxWx,2013-09-16 15:36:00,
2013-09-16 11:41:00,60.0,52.0,30.13,ENE,67,7.0,7.0,75,0.00,,,0.03,TxWx,2013-09-16 15:41:00,
2013-09-16 11:46:00,56.0,49.0,30.13,NW,315,6.0,6.0,76,0.00,,,0.03,TxWx,2013-09-16 15:46:00,
2013-09-16 11:51:00,55.0,49.0,30.13,North,0,2.0,3.0,79,0.00,,,0.03,TxWx,2013-09-16 15:51:00,
2013-09-16 11:56:00,54.0,48.0,30.14,North,0,4.0,5.0,81,0.00,,,0.03,TxWx,2013-09-16 15:56:00,
2013-09-16 12:01:00,53.0,48.0,30.14,ENE,67,3.0,4.0,82,0.00,,,0.03,TxWx,2013-09-16 16:01:00,
2013-09-16 12:06:00,53.0,48.0,30.14,North,0,4.0,4.0,83,0.00,,,0.03,TxWx,2013-09-16 16:06:00,
2013-09-16 12:11:00,53.0,48.0,30.14,NNE,22,3.0,8.0,84,0.00,,,0.03,TxWx,2013-09-16 16:11:00,
2013-09-16 12:16:00,53.0,48.0,30.14,ENE,67,5.0,6.0,84,0.00,,,0.03,TxWx,2013-09-16 16:16:00,
2013-09-16 12:21:00,53.0,48.0,30.14,East,90,3.0,3.0,84,0.00,,,0.03,TxWx,2013-09-16 16:21:00,
2013-09-16 12:26:00,53.0,48.0,30.14,East,90,1.0,3.0,84,0.00,,,0.03,TxWx,2013-09-16 16:26:00,
2013-09-16 12:31:00,53.0,48.0,30.15,North,0,4.0,4.0,83,0.00,,,0.03,TxWx,2013-09-16 16:31:00,
2013-09-16 12:36:00,53.0,48.0,30.15,North,0,6.0,6.0,83,0.00,,,0.03,TxWx,2013-09-16 16:36:00,
2013-09-16 12:41:00,53.0,48.0,30.15,NNW,337,3.0,3.0,83,0.00,,,0.03,TxWx,2013-09-16 16:41:00,
2013-09-16 12:46:00,53.0,48.0,30.15,NNE,22,2.0,2.0,83,0.00,,,0.03,TxWx,2013-09-16 16:46:00,
2013-09-16 12:51:00,53.0,48.0,30.16,NNW,337,2.0,2.0,83,0.00,,,0.03,TxWx,2013-09-16 16:51:00,
2013-09-16 12:56:00,53.0,48.0,30.15,ESE,112,2.0,3.0,83,0.00,,,0.03,TxWx,2013-09-16 16:56:00,
2013-09-16 13:01:00,53.0,48.0,30.15,ENE,67,1.0,1.0,83,0.00,,,0.03,TxWx,2013-09-16 17:01:00,
2013-09-16 13:06:00,54.0,49.0,30.16,ENE,67,1.0,3.0,82,0.00,,,0.03,TxWx,2013-09-16 17:06:00,
2013-09-16 13:11:00,54.0,48.0,30.16,NNE,22,3.0,3.0,82,0.00,,,0.03,TxWx,2013-09-16 17:11:00,
2013-09-16 13:16:00,54.0,48.0,30.16,SE,135,3.0,5.0,80,0.00,,,0.03,TxWx,2013-09-16 17:16:00,
2013-09-16 13:21:00,54.0,48.0,30.16,East,90,1.0,5.0,80,0.00,,,0.03,TxWx,2013-09-16 17:21:00,
2013-09-16 13:26:00,54.0,48.0,30.16,NE,45,4.0,4.0,80,0.00,,,0.03,TxWx,2013-09-16 17:26:00,
2013-09-16 13:31:00,54.0,48.0,30.16,North,0,2.0,6.0,79,0.00,,,0.03,TxWx,2013-09-16 17:31:00,
2013-09-16 13:36:00,54.0,48.0,30.16,NNE,22,1.0,3.0,79,0.00,,,0.03,TxWx,2013-09-16 17:36:00,
2013-09-16 13:41:00,54.0,47.0,30.16,NW,315,2.0,3.0,79,0.00,,,0.03,TxWx,2013-09-16 17:41:00,
2013-09-16 13:46:00,54.0,48.0,30.16,ESE,112,3.0,3.0,79,0.00,,,0.03,TxWx,2013-09-16 17:46:00,
2013-09-16 13:51:00,54.0,47.0,30.16,ESE,112,3.0,3.0,79,0.00,,,0.03,TxWx,2013-09-16 17:51:00,
2013-09-16 13:56:00,54.0,48.0,30.16,NNW,337,3.0,5.0,79,0.00,,,0.03,TxWx,2013-09-16 17:56:00,
2013-09-16 14:01:00,55.0,48.0,30.16,ENE,67,1.0,5.0,79,0.00,,,0.03,TxWx,2013-09-16 18:01:00,
2013-09-16 14:06:00,55.0,48.0,30.16,NE,45,3.0,3.0,77,0.00,,,0.03,TxWx,2013-09-16 18:06:00,
2013-09-16 14:11:00,56.0,49.0,30.16,WNW,292,3.0,3.0,77,0.00,,,0.03,TxWx,2013-09-16 18:11:00,
2013-09-16 14:16:00,56.0,48.0,30.16,NNE,22,7.0,7.0,75,0.00,,,0.03,TxWx,2013-09-16 18:16:00,
2013-09-16 14:21:00,56.0,47.0,30.16,NNW,337,2.0,5.0,73,0.00,,,0.03,TxWx,2013-09-16 18:21:00,
2013-09-16 14:26:00,56.0,48.0,30.17,SE,135,6.0,6.0,74,0.00,,,0.03,TxWx,2013-09-16 18:26:00,
2013-09-16 14:31:00,56.0,48.0,30.17,SE,135,5.0,6.0,73,0.00,,,0.03,TxWx,2013-09-16 18:31:00,
2013-09-16 14:36:00,56.0,47.0,30.17,East,90,5.0,6.0,73,0.00,,,0.03,TxWx,2013-09-16 18:36:00,
2013-09-16 14:41:00,56.0,48.0,30.17,NNE,22,5.0,6.0,74,0.00,,,0.03,TxWx,2013-09-16 18:41:00,
2013-09-16 14:46:00,56.0,47.0,30.16,East,90,1.0,3.0,73,0.00,,,0.03,TxWx,2013-09-16 18:46:00,
2013-09-16 14:51:00,56.0,47.0,30.17,NE,45,5.0,7.0,73,0.00,,,0.03,TxWx,2013-09-16 18:51:00,
2013-09-16 14:56:00,56.0,47.0,30.16,NE,45,4.0,4.0,73,0.00,,,0.03,TxWx,2013-09-16 18:56:00,
2013-09-16 14:59:00,42.0,37.0,30.38,SE,135,0.0,0.0,83,0.00,,,0.03,TxWx,2013-09-16 18:59:00,
2013-09-16 15:00:00,42.0,37.0,30.38,ESE,112,0.0,0.0,83,0.00,,,0.00,TxWx,2013-09-16 19:00:00,
2013-09-16 15:01:00,56.0,47.0,30.16,ESE,112,4.0,4.0,73,0.00,,,0.03,TxWx,2013-09-16 19:01:00,
2013-09-16 15:02:00,42.0,37.0,30.38,SSE,157,0.0,0.0,83,0.00,,,0.00,TxWx,2013-09-16 19:02:00,
2013-09-16 15:03:00,42.0,37.0,30.38,SE,135,0.0,0.0,84,0.00,,,0.00,TxWx,2013-09-16 19:03:00,
2013-09-16 15:04:00,42.0,37.0,30.38,SSE,157,0.0,0.0,84,0.00,,,0.00,TxWx,2013-09-16 19:04:00,
2013-09-16 15:05:00,42.0,37.0,30.38,East,90,0.0,0.0,84,0.00,,,0.00,TxWx,2013-09-16 19:05:00,
2013-09-16 15:06:00,57.0,48.0,30.16,ESE,112,3.0,3.0,73,0.00,,,0.03,TxWx,2013-09-16 19:06:00,
2013-09-16 15:07:00,42.0,37.0,30.38,SE,135,0.0,0.0,84,0.00,,,0.00,TxWx,2013-09-16 19:07:00,
2013-09-16 15:08:00,42.0,37.0,30.38,South,180,0.0,0.0,84,0.00,,,0.00,TxWx,2013-09-16 19:08:00,
2013-09-16 15:09:00,42.0,38.0,30.38,SE,135,0.0,0.0,84,0.00,,,0.00,TxWx,2013-09-16 19:09:00,
2013-09-16 15:10:00,42.0,38.0,30.38,ESE,112,0.0,0.0,84,0.00,,,0.00,TxWx,2013-09-16 19:10:00,
2013-09-16 15:11:00,57.0,48.0,30.17,North,0,3.0,4.0,72,0.00,,,0.03,TxWx,2013-09-16 19:11:00,
2013-09-16 15:12:00,42.0,38.0,30.38,SW,225,0.0,0.0,84,0.00,,,0.00,TxWx,2013-09-16 19:12:00,
2013-09-16 15:13:00,42.0,38.0,30.38,ESE,112,0.0,0.0,84,0.00,,,0.00,TxWx,2013-09-16 19:13:00,
2013-09-16 15:14:00,42.0,38.0,30.38,SSE,157,0.0,0.0,84,0.00,,,0.00,TxWx,2013-09-16 19:14:00,
2013-09-16 15:15:00,42.0,38.0,30.38,East,90,0.0,0.0,84,0.00,,,0.00,TxWx,2013-09-16 19:15:00,
2013-09-16 15:16:00,57.0,47.0,30.17,ESE,112,4.0,11.0,71,0.00,,,0.03,TxWx,2013-09-16 19:16:00,
2013-09-16 15:17:00,42.0,38.0,30.38,South,180,0.0,0.0,85,0.00,,,0.00,TxWx,2013-09-16 19:17:00,
2013-09-16 15:18:00,42.0,38.0,30.38,ESE,112,0.0,0.0,85,0.00,,,0.00,TxWx,2013-09-16 19:18:00,
2013-09-16 15:19:00,42.0,38.0,30.38,SE,135,0.0,0.0,85,0.00,,,0.00,TxWx,2013-09-16 19:19:00,
2013-09-16 15:20:00,42.0,38.0,30.38,SE,135,0.0,0.0,85,0.00,,,0.00,TxWx,2013-09-16 19:20:00,
2013-09-16 15:21:00,57.0,48.0,30.17,NE,45,2.0,5.0,71,0.00,,,0.03,TxWx,2013-09-16 19:21:00,
2013-09-16 15:23:00,42.0,38.0,30.38,East,90,0.0,0.0,85,0.00,,,0.00,TxWx,2013-09-16 19:23:00,
2013-09-16 15:24:00,42.0,38.0,30.38,East,90,0.0,0.0,85,0.00,,,0.00,TxWx,2013-09-16 19:24:00,
2013-09-16 15:25:00,42.0,38.0,30.39,ENE,67,0.0,0.0,85,0.00,,,0.00,TxWx,2013-09-16 19:25:00,
2013-09-16 15:26:00,57.0,48.0,30.17,NW,315,3.0,4.0,71,0.00,,,0.03,TxWx,2013-09-16 19:26:00,
2013-09-16 15:27:00,42.0,38.0,30.39,ESE,112,0.0,0.0,85,0.00,,,0.00,TxWx,2013-09-16 19:27:00,
2013-09-16 15:28:00,42.0,38.0,30.39,SE,135,0.0,0.0,85,0.00,,,0.00,TxWx,2013-09-16 19:28:00,
2013-09-16 15:29:00,42.0,38.0,30.39,ESE,112,0.0,0.0,85,0.00,,,0.00,TxWx,2013-09-16 19:29:00,
2013-09-16 15:31:00,57.0,47.0,30.17,ESE,112,5.0,5.0,70,0.00,,,0.03,TxWx,2013-09-16 19:31:00,
2013-09-16 15:33:00,42.0,38.0,30.39,SSW,202,0.0,0.0,85,0.00,,,0.00,TxWx,2013-09-16 19:33:00,
2013-09-16 15:34:00,42.0,38.0,30.39,ESE,112,0.0,0.0,85,0.00,,,0.00,TxWx,2013-09-16 19:34:00,
2013-09-16 15:35:00,42.0,38.0,30.39,ESE,112,0.0,0.0,85,0.00,,,0.00,TxWx,2013-09-16 19:35:00,
2013-09-16 15:36:00,57.0,48.0,30.17,NE,45,1.0,1.0,71,0.00,,,0.03,TxWx,2013-09-16 19:36:00,
2013-09-16 15:41:00,57.0,47.0,30.17,NE,45,4.0,4.0,70,0.00,,,0.03,TxWx,2013-09-16 19:41:00,
2013-09-16 15:46:00,57.0,47.0,30.17,ESE,112,8.0,8.0,69,0.00,,,0.03,TxWx,2013-09-16 19:46:00,
2013-09-16 15:51:00,57.0,47.0,30.17,ENE,67,6.0,6.0,70,0.00,,,0.03,TxWx,2013-09-16 19:51:00,
2013-09-16 15:56:00,57.0,47.0,30.17,ENE,67,4.0,6.0,69,0.00,,,0.03,TxWx,2013-09-16 19:56:00,
2013-09-16 16:01:00,56.0,46.0,30.17,NNE,22,2.0,7.0,69,0.00,,,0.03,TxWx,2013-09-16 20:01:00,
2013-09-16 16:06:00,57.0,47.0,30.17,ESE,112,5.0,6.0,70,0.00,,,0.03,TxWx,2013-09-16 20:06:00,
2013-09-16 16:11:00,56.0,46.0,30.17,NNE,22,2.0,4.0,69,0.00,,,0.03,TxWx,2013-09-16 20:11:00,
2013-09-16 16:16:00,56.0,46.0,30.17,East,90,5.0,8.0,69,0.00,,,0.03,TxWx,2013-09-16 20:16:00,
2013-09-16 16:21:00,56.0,46.0,30.17,NNE,22,2.0,3.0,70,0.00,,,0.03,TxWx,2013-09-16 20:21:00,
2013-09-16 16:26:00,56.0,46.0,30.18,North,0,3.0,3.0,68,0.00,,,0.03,TxWx,2013-09-16 20:26:00,
2013-09-16 16:32:00,56.0,45.0,30.18,North,0,3.0,4.0,68,0.00,,,0.03,TxWx,2013-09-16 20:32:00,
2013-09-16 16:37:00,56.0,45.0,30.18,NNW,337,6.0,8.0,68,0.00,,,0.03,TxWx,2013-09-16 20:37:00,
2013-09-16 16:42:00,56.0,45.0,30.18,NW,315,4.0,4.0,67,0.00,,,0.03,TxWx,2013-09-16 20:42:00,
2013-09-16 16:47:00,56.0,45.0,30.18,NNE,22,3.0,4.0,66,0.00,,,0.03,TxWx,2013-09-16 20:47:00,
2013-09-16 16:52:00,56.0,44.0,30.18,ENE,67,3.0,5.0,65,0.00,,,0.03,TxWx,2013-09-16 20:52:00,
2013-09-16 16:57:00,56.0,44.0,30.18,NNE,22,3.0,4.0,65,0.00,,,0.03,TxWx,2013-09-16 20:57:00,
2013-09-16 17:02:00,56.0,44.0,30.19,NW,315,5.0,10.0,64,0.00,,,0.03,TxWx,2013-09-16 21:02:00,
2013-09-16 17:07:00,55.0,43.0,30.19,NNE,22,2.0,3.0,64,0.00,,,0.03,TxWx,2013-09-16 21:07:00,
2013-09-16 17:12:00,55.0,43.0,30.19,NE,45,3.0,3.0,64,0.00,,,0.03,TxWx,2013-09-16 21:12:00,
2013-09-16 17:17:00,55.0,43.0,30.20,NNW,337,3.0,3.0,64,0.00,,,0.03,TxWx,2013-09-16 21:17:00,
2013-09-16 17:22:00,55.0,43.0,30.20,NW,315,3.0,3.0,65,0.00,,,0.03,TxWx,2013-09-16 21:22:00,
2013-09-16 17:27:00,55.0,43.0,30.20,North,0,3.0,3.0,65,0.00,,,0.03,TxWx,2013-09-16 21:27:00,
2013-09-16 17:32:00,55.0,43.0,30.20,North,0,8.0,8.0,64,0.00,,,0.03,TxWx,2013-09-16 21:32:00,
2013-09-16 17:37:00,55.0,43.0,30.20,NNE,22,4.0,5.0,64,0.00,,,0.03,TxWx,2013-09-16 21:37:00,
2013-09-16 17:42:00,55.0,43.0,30.20,NNE,22,3.0,3.0,64,0.00,,,0.03,TxWx,2013-09-16 21:42:00,
2013-09-16 17:47:00,55.0,43.0,30.21,NNE,22,1.0,3.0,65,0.00,,,0.03,TxWx,2013-09-16 21:47:00,
2013-09-16 17:53:00,55.0,43.0,30.21,NNW,337,6.0,9.0,64,0.00,,,0.03,TxWx,2013-09-16 21:53:00,
2013-09-16 17:58:00,55.0,43.0,30.21,NE,45,3.0,3.0,64,0.00,,,0.03,TxWx,2013-09-16 21:58:00,
2013-09-16 18:03:00,54.0,42.0,30.21,North,0,1.0,5.0,65,0.00,,,0.03,TxWx,2013-09-16 22:03:00,
2013-09-16 18:08:00,54.0,42.0,30.22,NNE,22,2.0,2.0,65,0.00,,,0.03,TxWx,2013-09-16 22:08:00,
2013-09-16 18:13:00,54.0,42.0,30.22,NNE,22,3.0,3.0,65,0.00,,,0.03,TxWx,2013-09-16 22:13:00,
2013-09-16 18:18:00,54.0,42.0,30.22,NNE,22,3.0,3.0,64,0.00,,,0.03,TxWx,2013-09-16 22:18:00,
2013-09-16 18:23:00,54.0,42.0,30.22,NNE,22,3.0,3.0,65,0.00,,,0.03,TxWx,2013-09-16 22:23:00,
2013-09-16 18:28:00,53.0,42.0,30.22,NNE,22,5.0,6.0,65,0.00,,,0.03,TxWx,2013-09-16 22:28:00,
2013-09-16 18:33:00,53.0,42.0,30.22,NE,45,0.0,0.0,65,0.00,,,0.03,TxWx,2013-09-16 22:33:00,
2013-09-16 18:38:00,53.0,42.0,30.23,NNE,22,4.0,4.0,65,0.00,,,0.03,TxWx,2013-09-16 22:38:00,
2013-09-16 18:43:00,53.0,41.0,30.23,North,0,3.0,4.0,65,0.00,,,0.03,TxWx,2013-09-16 22:43:00,
2013-09-16 18:48:00,53.0,41.0,30.24,North,0,3.0,4.0,65,0.00,,,0.03,TxWx,2013-09-16 22:48:00,
2013-09-16 18:53:00,53.0,42.0,30.24,NNE,22,5.0,5.0,65,0.00,,,0.03,TxWx,2013-09-16 22:53:00,
2013-09-16 18:58:00,52.0,40.0,30.24,NW,315,2.0,4.0,65,0.00,,,0.03,TxWx,2013-09-16 22:58:00,
2013-09-16 19:03:00,52.0,41.0,30.24,North,0,3.0,3.0,65,0.00,,,0.03,TxWx,2013-09-16 23:03:00,
2013-09-16 19:08:00,52.0,41.0,30.25,East,90,1.0,3.0,65,0.00,,,0.03,TxWx,2013-09-16 23:08:00,
2013-09-16 19:13:00,52.0,40.0,30.25,NNE,22,3.0,5.0,64,0.00,,,0.03,TxWx,2013-09-16 23:13:00,
2013-09-16 19:19:00,52.0,40.0,30.25,NNE,22,5.0,6.0,64,0.00,,,0.03,TxWx,2013-09-16 23:19:00,
2013-09-16 19:24:00,52.0,40.0,30.26,NW,315,5.0,6.0,64,0.00,,,0.03,TxWx,2013-09-16 23:24:00,
2013-09-16 19:29:00,52.0,40.0,30.26,NNE,22,5.0,6.0,63,0.00,,,0.03,TxWx,2013-09-16 23:29:00,
2013-09-16 19:34:00,52.0,39.0,30.27,NNE,22,8.0,8.0,62,0.00,,,0.03,TxWx,2013-09-16 23:34:00,
2013-09-16 19:39:00,52.0,39.0,30.27,North,0,5.0,7.0,62,0.00,,,0.03,TxWx,2013-09-16 23:39:00,
2013-09-16 19:44:00,51.0,38.0,30.27,NE,45,6.0,9.0,62,0.00,,,0.03,TxWx,2013-09-16 23:44:00,
2013-09-16 19:49:00,51.0,38.0,30.28,NNE,22,5.0,5.0,62,0.00,,,0.03,TxWx,2013-09-16 23:49:00,
2013-09-16 19:54:00,51.0,39.0,30.28,NNE,22,6.0,6.0,63,0.00,,,0.03,TxWx,2013-09-16 23:54:00,
2013-09-16 19:59:00,51.0,39.0,30.28,North,0,5.0,5.0,63,0.00,,,0.03,TxWx,2013-09-16 23:59:00,
2013-09-16 20:04:00,51.0,39.0,30.29,NNW,337,5.0,5.0,63,0.00,,,0.03,TxWx,2013-09-17 00:04:00,
2013-09-16 20:09:00,51.0,39.0,30.29,NNE,22,2.0,2.0,63,0.00,,,0.03,TxWx,2013-09-17 00:09:00,
2013-09-16 20:14:00,51.0,39.0,30.29,North,0,1.0,3.0,64,0.00,,,0.03,TxWx,2013-09-17 00:14:00,
2013-09-16 20:19:00,51.0,39.0,30.30,North,0,2.0,3.0,64,0.00,,,0.03,TxWx,2013-09-17 00:19:00,
2013-09-16 20:24:00,50.0,38.0,30.30,NW,315,3.0,5.0,65,0.00,,,0.03,TxWx,2013-09-17 00:24:00,
2013-09-16 20:29:00,50.0,38.0,30.30,North,0,1.0,1.0,65,0.00,,,0.03,TxWx,2013-09-17 00:29:00,
2013-09-16 20:34:00,50.0,39.0,30.30,NNE,22,3.0,5.0,66,0.00,,,0.03,TxWx,2013-09-17 00:34:00,
2013-09-16 20:40:00,50.0,39.0,30.30,WSW,247,3.0,5.0,66,0.00,,,0.03,TxWx,2013-09-17 00:40:00,
2013-09-16 20:45:00,50.0,39.0,30.31,NE,45,3.0,3.0,66,0.00,,,0.03,TxWx,2013-09-17 00:45:00,
2013-09-16 20:50:00,50.0,39.0,30.31,North,0,2.0,3.0,66,0.00,,,0.03,TxWx,2013-09-17 00:50:00,
2013-09-16 20:55:00,50.0,39.0,30.31,NE,45,6.0,6.0,67,0.00,,,0.03,TxWx,2013-09-17 00:55:00,
2013-09-16 21:00:00,50.0,39.0,30.31,NNE,22,5.0,5.0,66,0.00,,,0.03,TxWx,2013-09-17 01:00:00,
2013-09-16 21:05:00,50.0,39.0,30.31,NW,315,1.0,3.0,66,0.00,,,0.03,TxWx,2013-09-17 01:05:00,
2013-09-16 21:10:00,50.0,39.0,30.32,NE,45,2.0,2.0,66,0.00,,,0.03,TxWx,2013-09-17 01:10:00,
2013-09-16 21:15:00,49.0,38.0,30.32,NW,315,3.0,3.0,67,0.00,,,0.03,TxWx,2013-09-17 01:15:00,
2013-09-16 21:20:00,49.0,39.0,30.32,North,0,1.0,1.0,67,0.00,,,0.03,TxWx,2013-09-17 01:20:00,
2013-09-16 21:25:00,49.0,39.0,30.32,North,0,1.0,1.0,68,0.00,,,0.03,TxWx,2013-09-17 01:25:00,
2013-09-16 21:30:00,49.0,39.0,30.33,NE,45,1.0,1.0,68,0.00,,,0.03,TxWx,2013-09-17 01:30:00,
2013-09-16 21:35:00,49.0,39.0,30.33,NE,45,0.0,0.0,69,0.00,,,0.03,TxWx,2013-09-17 01:35:00,
2013-09-16 21:40:00,48.0,38.0,30.33,SE,135,0.0,0.0,69,0.00,,,0.03,TxWx,2013-09-17 01:40:00,
2013-09-16 21:45:00,48.0,38.0,30.33,ESE,112,0.0,0.0,69,0.00,,,0.03,TxWx,2013-09-17 01:45:00,
2013-09-16 21:50:00,47.0,38.0,30.34,ESE,112,0.0,0.0,70,0.00,,,0.03,TxWx,2013-09-17 01:50:00,
2013-09-16 21:56:00,47.0,38.0,30.34,ESE,112,0.0,0.0,70,0.00,,,0.03,TxWx,2013-09-17 01:56:00,
2013-09-16 22:01:00,46.0,37.0,30.34,ESE,112,0.0,0.0,71,0.00,,,0.03,TxWx,2013-09-17 02:01:00,
2013-09-16 22:06:00,46.0,37.0,30.34,SE,135,0.0,0.0,72,0.00,,,0.03,TxWx,2013-09-17 02:06:00,
2013-09-16 22:11:00,46.0,37.0,30.34,ESE,112,0.0,0.0,72,0.00,,,0.03,TxWx,2013-09-17 02:11:00,
2013-09-16 22:16:00,45.0,37.0,30.34,ESE,112,0.0,0.0,73,0.00,,,0.03,TxWx,2013-09-17 02:16:00,
2013-09-16 22:21:00,45.0,37.0,30.35,ESE,112,0.0,0.0,74,0.00,,,0.03,TxWx,2013-09-17 02:21:00,
2013-09-16 22:26:00,45.0,37.0,30.35,ESE,112,0.0,0.0,74,0.00,,,0.03,TxWx,2013-09-17 02:26:00,
2013-09-16 22:31:00,45.0,38.0,30.35,SE,135,0.0,0.0,76,0.00,,,0.03,TxWx,2013-09-17 02:31:00,
2013-09-16 22:36:00,44.0,37.0,30.35,East,90,0.0,0.0,76,0.00,,,0.03,TxWx,2013-09-17 02:36:00,
2013-09-16 22:41:00,44.0,37.0,30.35,SE,135,0.0,0.0,76,0.00,,,0.03,TxWx,2013-09-17 02:41:00,
2013-09-16 22:46:00,44.0,37.0,30.35,SE,135,0.0,0.0,77,0.00,,,0.03,TxWx,2013-09-17 02:46:00,
2013-09-16 22:51:00,43.0,36.0,30.36,ESE,112,0.0,0.0,77,0.00,,,0.03,TxWx,2013-09-17 02:51:00,
2013-09-16 22:56:00,43.0,37.0,30.36,ESE,112,0.0,0.0,78,0.00,,,0.03,TxWx,2013-09-17 02:56:00,
2013-09-16 23:01:00,43.0,37.0,30.36,SE,135,0.0,0.0,79,0.00,,,0.03,TxWx,2013-09-17 03:01:00,
2013-09-16 23:07:00,43.0,37.0,30.36,SE,135,0.0,0.0,80,0.00,,,0.03,TxWx,2013-09-17 03:07:00,
2013-09-16 23:12:00,43.0,37.0,30.36,ESE,112,0.0,0.0,80,0.00,,,0.03,TxWx,2013-09-17 03:12:00,
2013-09-16 23:17:00,43.0,37.0,30.36,SE,135,0.0,0.0,80,0.00,,,0.03,TxWx,2013-09-17 03:17:00,
2013-09-16 23:22:00,43.0,37.0,30.37,ESE,112,0.0,0.0,81,0.00,,,0.03,TxWx,2013-09-17 03:22:00,
2013-09-16 23:27:00,42.0,37.0,30.37,SE,135,0.0,0.0,81,0.00,,,0.03,TxWx,2013-09-17 03:27:00,
2013-09-16 23:32:00,42.0,37.0,30.37,ESE,112,0.0,0.0,81,0.00,,,0.03,TxWx,2013-09-17 03:32:00,
2013-09-16 23:37:00,42.0,37.0,30.37,SE,135,0.0,0.0,82,0.00,,,0.03,TxWx,2013-09-17 03:37:00,
2013-09-16 23:42:00,42.0,37.0,30.37,ENE,67,0.0,0.0,82,0.00,,,0.03,TxWx,2013-09-17 03:42:00,
2013-09-16 23:47:00,42.0,37.0,30.37,ESE,112,0.0,0.0,82,0.00,,,0.03,TxWx,2013-09-17 03:47:00,
2013-09-16 23:52:00,42.0,37.0,30.37,SE,135,0.0,0.0,82,0.00,,,0.03,TxWx,2013-09-17 03:52:00,
2013-09-16 23:57:00,42.0,37.0,30.37,South,180,0.0,0.0,83,0.00,,,0.03,TxWx,2013-09-17 03:57:00,